Weather in Andong

South Korea     36°33′49″N   128°43′05″E
В апреле 2022 года жителям России запретили посещать сайт meteo.paraplan.net по решению Генеральной прокуратуры. Аудитория сайта уменьшилась в 10 раз. Владельцы сайта не видят смысла в поддержке погодного сервера в таких условиях. Сайт будет закрыт в октябре.
temp.,
°C
wind,
m/s
gust,
m/s
humid.,
%
clouds,
%
prec.,
mm/h
press.,
hPa
HPBL,
m
29 september, thu
thu2900:00+13ene00915 0.0 101410
03:00+12ne00930 0.0 101410
06:00+11nne00950 0.0 101510
09:00+18wnw11650 0.0 1016297
12:00+25wnw22360 0.0 1014765
15:00+27w11290 0.0 10131105
18:00+19w11530 0.0 101411
21:00+15e11610 0.0 101611
30 september, fri
fri3000:00+14ene11690 0.0 101710
03:00+12ne00750 0.0 101710
06:00+11ene00820 0.0 101810
09:00+19nw11600 0.0 1018256
12:00+26w23380 0.0 1016940
15:00+27w33280 0.0 10151292
18:00+20s11520 0.0 101511
21:00+16ese00600 0.0 101711
1 october, sat
sat100:00+14e11700 0.0 101710
03:00+13se007629 0.0 101710
06:00+11se0081100 0.0 101810
09:00+18wsw116084 0.0 1019203
12:00+23wnw2339100 0.0 1018637
15:00+25nw2335100 0.0 1017838
18:00+20e1157100 0.0 101711
21:00+16ne116757 0.0 101911
2 october, sun
sun200:00+14ene1174100 0.0 101910
03:00+13ene1175100 0.0 101910
06:00+13ne117293 0.0 101913
09:00+20nne114996 0.0 1020242
12:00+20sw1159100 0.0 101988
15:00+19wnw1166100 0.0 101827
18:00+18e1172100 0.0 101811
21:00+17ene1178100 0.0 101714
3 october, mon
mon300:00+18ese007459 0.0 101711
03:00+16ne008959 0.4 101711
06:00+16se119238 0.3 101713
09:00+19ssw128599 0.4 1017205
12:00+26sw45615 0.0 10151020
15:00+24w147490 0.4 1013260
18:00+21sw118883 0.3 101311
21:00+21wsw119698 0.5 101217